SJ-9B

Satellite information

Favourite Embed

Satellite Type and Status

PAYLOADIN ORBIT

Key statistics

Satellite SJ-9B at a glance.

Uptime

4759

Days in orbit

Revolutions

≈ 14.9

Per day

Orbit

SSO

Sun Synchronous Orbit

Inclination

97.6

Latest

Satellite identification and parameters

Extended collection of information and parameters for SJ-9B.

Object identification

Identified? True

Debris? False

Object name: SJ-9B

International designator: 2012-056B

Object number (NORAD): 38861

Object ID (CCSDS): 38861

Country: PEOPLES REPUBLIC OF CHINA (PRC)

Current information (Y/N): Y

RCS size: MEDIUM

Orbital parameters

Period: 96.645 minutes

Inclination: 97.5791 deg

SMA: 6976.104 km

Apoapsis: 607.613 km

Periapsis: 588.326 km

RAAN: 286.1886 deg

Eccentricy: 0.00138239

Argument of periapsis: 278.9942 deg

Mean anomaly: 80.9712 deg

Mean motion: 14.89989825 rev/day

Mean motion (dot): 0.00004005 rev/day2

B* drag term: 0.00042024567 1/REarth

Two-line elements (TLE)

Creation date: Oct. 25, 2025, 3:11 a.m.

Reference frame: TEME

Reference center: EARTH

Epoch: Oct. 24, 2025, 11:34 p.m. UTC

TLE line 0: 0 SJ-9B

TLE line 1: 1 38861U 12056B 25297.98233566 .00004005 00000-0 42025-3 0 9992

TLE line 2: 2 38861 97.5791 286.1886 0013824 278.9942 80.9712 14.89989825704689

Live tracking on map

Real-time ground track for satellite SJ-9B.

In-orbit conjunctions

There are no conjunctions computed for SJ-9B, at the moment. Check back to stay up to date, as we update our databases every day.

Go to all conjunctions

Associated space launch

SJ-9B was lifted into orbit during the mission ‘Long March 2C/SMA | Shijian 9A & Shijian 9B’, on board a Long March 2 space rocket.

The launch took place on Oct. 14, 2012, 3:25 a.m. from Launch Complex 9.

For more information about the launch, click the button.

Launch to space Long March 2C/SMA | Shijian 9A & Shijian 9B
Long March 2C/SMA | Shijian 9A & Shijian 9B

Agency: N/A

Status: Launch Successful

Launch date: Oct. 14, 2012, 3:25 a.m. UTC

Rocket: Long March 2

Launch pad: Launch Complex 9

Location: Taiyuan Satellite Launch Center, People's Republic of China

...

Latest news about this satellite

There are no fresh news available about this satellite. Check back as we update our databases every day.


Newsletter sign-up

Weekly statistics, charts and insights to help you stay on top of the space industry.